Regional Weather Roundup
Issued by NWS Pendleton, OR

Home | Current Version | Previous Version | Text Only | Print | Product List | Glossary On
Versions: 1 2 3 4 5 6 7 8 9 10 11 12 13 14 15 16 17 18 19 20 21 22 23 24 25 26 27 28 29 30 31 32 33 34 35 36 37 38 39 40 41 42 43 44 45 46 47 48 49 50
000
ASUS46 KPDT 280904
RWRPDT
PENDLETON REGIONAL WEATHER ROUNDUP
NATIONAL WEATHER SERVICE PENDLETON OREGON
100 AM PST SUN DEC 28 2014

NOTE: FAIR INDICATES FEW OR NO CLOUDS BELOW 12,000 FEET WITH NO
SIGNIFICANT WEATHER AND/OR OBSTRUCTIONS TO VISIBILITY.

# INDICATES UNOFFICIAL STATION AND DATA

WAZ520-281010-
EAST SLOPES OF WASHINGTON CASCADES

CITY            SKY/WX      TMP DP  RH  WIND    PRES   REMARKS
#BULLFROG       N/A         35  33  92  W2      N/A
#BULLFROG 2SW   N/A         36  36  100 CALM    27.56S
#BUMPING DAM    N/A         31  N/A N/A CALM    N/A
#CLE ELUM HS    N/A         34  33  96  W2      29.94S
#CLE ELUM 2NW   N/A         33  32  96  SW2     N/A
#CLE ELUM LAKE  N/A         32  31  96  CALM    30.01S
#CLIFFDEL 2NW   N/A         31  30  96  CALM    N/A
#EASTON DOT     N/A         33  33  100 N1      N/A
#ELK HTS DOT    N/A         34  34  100 NW2     N/A
#GLENWOOD       N/A         34  32  92  CALM    30.10S
#MANASTASH CYN  N/A         33  28  82  CALM    29.89F
#NELSON         N/A         34  33  96  CALM    30.03F
#NELSON 3SW     N/A         32  31  96  CALM    30.23F
#NILE           N/A         29  28  96  CALM    29.28S
#PEOH POINT     N/A         28  28  100 SW7     N/A
#RONALD 2NW     N/A         33  31  92  N3      29.84R
#SNOWDEN        N/A         34  32  92  CALM    N/A
#SOUTH BLEWITT  N/A         31  31  100 CALM    N/A
#TEANAWAY 4NE   N/A         31  31  100 CALM    N/A
#TROUT LAKE HS  N/A         34  34  100 CALM    N/A
#TROUT LAKE 1NE N/A         32  31  96  N1      30.11F
$$

WAZ521-281010-
SIMCOE HIGHLANDS

CITY            SKY/WX      TMP DP  RH  WIND    PRES   REMARKS
#BICKLETON HS   N/A         32  27  82  W10     34.25S
#SATUS PASS DOT N/A         32  29  89  CALM    N/A
#CENTERVILLE 4W N/A         37  35  92  W18     29.77S WCI 27
#CENTERVILLE 1SWN/A         36  32  85  W21     30.06S WCI 25
#GOLDENDALE     N/A         37  34  89  W9      N/A
#GOLDENDALE 1NE N/A         37  31  79  SW3     N/A
#GOLDENDALE 1S  N/A         36  34  92  W7      30.03R
#GOLDENDALE 5WNWN/A         37  34  89  W3      30.09R
#GOODNOE HILLS  N/A         40  33  76  W22     N/A    WCI 30
#LYLE 6NE       N/A         37  35  92  SW9     30.08F
$$

WAZ026-281010-
KITTITAS VALLEY

CITY            SKY/WX      TMP DP  RH  WIND    PRES   REMARKS
ELLENSBURG AP   CLEAR       36  30  79  NW14    29.94F WCI 27
#ELLENSBURG CWU N/A         35  32  89  NW7     29.96F
#ELLENSBURG 3NE N/A         34  31  89  NW3     29.96S
#ELLENSBURG     N/A         38  37  96  N2      N/A
#ELLENSBURG 1E  N/A         35  32  89  CALM    N/A
#KITTITAS 3S    N/A         26  25  96  SE1     30.03R
#MANASTASH RDG  N/A         32  32  100 W1      N/A
#ROCKY CYN DOT  N/A         35  35  100 NE12    N/A    WCI 27
#RYEGRASS DOT   N/A         31  30  96  W15     N/A    WCI 20
#THORP 6N       N/A         34  33  96  W15G28  30.01F WCI 24
$$

WAZ027-281010-
YAKIMA VALLEY

CITY            SKY/WX      TMP DP  RH  WIND    PRES   REMARKS
YAKIMA AIRPORT  CLEAR       37  26  64  CALM    29.98S
YAKIMA-VAGABOND CLEAR       33  28  82  SE6     29.98S
#DONALD 2NE     N/A         59  32  36  CALM    28.84S
#GRANDVIEW      N/A         39  28  64  NW2     30.05R
#MABTON         N/A         37  30  75  CALM    30.00F
#NACHES 2SW     N/A         37  32  82  W12     29.95S WCI 29
#PARKER DOT     N/A         39  27  62  CALM    N/A
#SELAH 8E       N/A         30  25  81  SW3     N/A
#TERRACE HTS    N/A         32  28  85  CALM    29.99S
#TOPPENISH      N/A         40  30  67  CALM    29.94S
#I82 S UMTANUM RN/A         31  24  75  N1      N/A
#UNION GAP DOT  N/A         36  26  67  CALM    N/A
#WAPATO 4NE     N/A         59  32  36  CALM    28.84S
#WEST VALLEY    N/A         39  30  70  CALM    30.00F
#W YAKIMA       N/A         39  30  70  NW1     30.02S
#WHITE SWAN 5E  N/A         43  32  65  W18G31  30.00F WCI 35
#WILEY CITY 3W  N/A         43  30  60  N9G26   29.98S
#ZILLAH DOT     N/A         40  29  64  SW2     N/A
$$

WAZ028-281010-
LOWER COLUMBIA BASIN...WASHINGTON

CITY            SKY/WX      TMP DP  RH  WIND    PRES   REMARKS
PASCO           PTCLDY      38  32  79  S7      30.02F
PROSSER AWOS    N/A         34  28  78  SW5     30.04F
RICHLAND AWOS   CLEAR       37  30  75  S6      30.02S
#BASIN CITY 5SW N/A         37  33  85  SW5     30.01R
#BENTON CITY    N/A         37  28  70  W6      29.93S
#CONNELL 5N     N/A         33  30  89  SW2     30.01S
#CONNELL 5NW    N/A         34  31  89  SW7     29.97F
#ELTOPIA        N/A         37  33  85  S2      30.00R
#ELTOPIA 6NW    N/A         34  31  89  S6      28.96R
#KAHLOTUS       N/A         35  32  89  W28G35  29.99S WCI 22
#KENNEWICK      N/A         36  36  100 CALM    27.56S
#KENNEWICK 3S   N/A         39  34  82  SW12    30.03R WCI 32
#PASCO-BROADMOORN/A         40  30  67  SW6     29.94R
#PATERSON       N/A         42  35  76  W13     30.05R WCI 35
#PROSSER DOT    N/A         33  30  89  SW5     N/A
#PROSSER        N/A         41  27  57  SW2     30.03S
#SAGEMOOR 2W    N/A         36  32  85  S2      29.88R
#TOUCHET 2S     N/A         42  32  67  SW21G30 30.01S WCI 33
#WEST PASCO     N/A         39  32  76  S2      30.04S
$$

WAZ029-281010-
FOOTHILLS OF THE BLUES...WASHINGTON

CITY            SKY/WX      TMP DP  RH  WIND    PRES   REMARKS
WALLA WALLA AP  MOCLDY      40  31  70  SW15    30.03F WCI 32
#COLLEGE PLACE  N/A         42  30  62  SW7     30.06S
#DAYTON SCHOOL  N/A         39  28  64  S9G28   30.02S
#DELANEY DOT    N/A         41  34  76  W14     N/A    WCI 33
#LOWDEN 2SE     N/A         42  33  70  W13     30.01R WCI 35
#PLEASANT VIEW 1N/A         33  32  96  S12     30.06S WCI 24
#PRESCOTT       N/A         39  34  82  S3      30.03S
#SUDBURY        N/A         41  N/A N/A CALM    N/A
#WHITMAN COLLEGEN/A         41  33  73  SW9     30.11R
#WAITSBURG 5S   N/A         37  32  82  SW16    30.15S WCI 28
#WAITSBURG 8N   N/A         35  21  56  S13     29.97S WCI 26
#WALLA WALLA 5E N/A         40  33  76  S15     N/A    WCI 32
#WALLA WALLA U  N/A         42  34  73  SW2     30.06S
#WHITMAN MISSIONN/A         42  33  70  SW14G26 30.07R WCI 35
$$

WAZ030-281010-
BLUE MOUNTAINS...WASHINGTON

CITY            SKY/WX      TMP DP  RH  WIND    PRES   REMARKS
#DIXIE 5SE      N/A         32  27  82  S18G26  29.91S WCI 21
$$

ORZ009-041-WAZ024-281010-
COLUMBIA RIVER GORGE

CITY            SKY/WX      TMP DP  RH  WIND    PRES   REMARKS
HOOD RIVER AP   LGT RAIN    41  39  93  NW8     30.12S
THE DALLES AP   LGT RAIN    43  38  82  NW12    30.11S WCI 37
#ARLINGTON AIRPON/A         42  34  73  W22     29.97S WCI 33
#CELILO DOT     N/A         44  32  62  SW7     N/A
#LYLE           N/A         44  40  86  W15     30.14R WCI 37
#MARYHILL       N/A         42  34  73  W1      N/A
#MARYHILL 2W    N/A         41  39  93  SE6     N/A
#MOSIER 1S      N/A         40  36  85  CALM    30.12S
#MURDOCK        N/A         44  41  89  W8      30.14S
#RUFUS DOT      N/A         N/A N/A N/A CALM    N/A

$$

ORZ510-281010-
NORTH CENTRAL OREGON

CITY            SKY/WX      TMP DP  RH  WIND    PRES   REMARKS
#CHENOWITH 1W   N/A         37  35  92  W20     N/A    WCI 27
#COW CYN RST AREN/A         35  25  66  W16G26  N/A    WCI 25
#DUFUR 9E       N/A         37  31  79  W16     30.16S WCI 28
#GRASS VALLEY   N/A         34  31  89  S6      N/A
#GRASS VALLEY 1SN/A         34  31  89  W13     30.15F WCI 25
#KENT DOT       N/A         34  21  58  W15     N/A    WCI 24
#MAUPIN SCHOOL  N/A         42  30  62  CALM    30.11S
#MORO SCHOOL    N/A         36  31  82  S2      30.08S
#SHANIKO 5WSW   N/A         33  18  53  SW30    N/A    WCI 19
#SHANIKO 4NW    N/A         32  23  69  W23G32  30.00F WCI 19
#TYGH VALLEY 2NEN/A         40  32  73  W7      30.13R
#WAPANITIA AIRPON/A         38  30  73  W9      30.16F
#WASCO DOT      N/A         37  30  75  SW8     N/A
#WASCO 5NE      N/A         36  32  85  SW3     30.12R
$$

ORZ511-281010-
CENTRAL OREGON

CITY            SKY/WX      TMP DP  RH  WIND    PRES   REMARKS
BEND AIRPORT    CLEAR       34  28  78  N5      30.10S
MADRAS AIRPORT  CLEAR       34  30  85  W3      30.13S
PRINEVILLE AP   CLOUDY      36  32  85  W13     30.11R WCI 27
REDMOND AIRPORT CLOUDY      36  31  82  N12     30.10S WCI 28
#BEND 1SW       N/A         32  29  89  SW1     N/A
#BEND-AWBREY    N/A         36  29  75  CALM    30.19R
#BEND-KIM LN    N/A         30  28  92  CALM    30.06R
#CROOKED RVR RANN/A         38  29  70  N3      30.19R
#CULVER         N/A         36  29  75  W3      30.08R
#LAKE BILLY CHINN/A         38   3  22  W14     30.19S WCI 30
#POWELL BUTTE 3EN/A         35  31  85  W5      N/A
#POWELL BUTTE   N/A         35  31  85  N10     29.72S
#PRINEVILLE 3N  N/A         34  30  85  NW7     30.18R
#WARM SPRINGS   N/A         35  32  89  CALM    30.09S


ORZ509-281010-
EAST SLOPES OF OREGON CASCADES

CITY            SKY/WX      TMP DP  RH  WIND    PRES   REMARKS
#BLUE BOX PASS  N/A         30  -18 11  NW3     N/A
#CAMP SHERMAN   N/A         36  30  79  NE3     30.18F
#LA PINE DOT    N/A         34  29  82  W8      N/A
#LA PINE 4NW    N/A         34  30  85  N7      30.28F
#LAVA BUTTE DOT N/A         33  28  82  CALM    N/A
#MT BACHELOR-MIDN/A         22  21  96  E18G32  N/A    WCI  8
#SISTERS AIRPOR N/A         35  35  100 N7      30.17S
#SISTERS ODOT   N/A         36  N/A N/A CALM    N/A
#SISTERS 3N     N/A         34  29  82  W3      30.10S
#SUNRIVER       N/A         34  31  89  SW2     30.11S
#SUTTLE LK DOT  N/A         28  28  100 NW7     N/A
#TUMALO 3W      N/A         37  28  70  W7      30.05S
#WANOGA BUTTE D N/A         27  25  92  W22G47  N/A    WCI 13

$$

ORZ044-281010-
LOWER COLUMBIA BASIN...OREGON

CITY            SKY/WX      TMP DP  RH  WIND    PRES   REMARKS
HERMISTON       PTCLDY      40  30  67  SW8     30.05S
#BOARDMAN 3W    N/A         41  33  73  W26     29.76F WCI 31
#BOARDMAN 8SW   N/A         42  34  73  SW18G26 30.06S WCI 34
#ECHO 8SW       N/A         42  28  57  W23     30.01S WCI 32
#IONE SCHOOL    N/A         42  30  62  SW15    30.05R WCI 34
#IRRIGON 4NW    N/A         43  37  79  SW15G26 N/A    WCI 36
#UMATILLA SCHOOLN/A         38  35  89  W9      30.07F
#UMATILLA       N/A         42  32  67  SW7     30.03R
$$

ORZ507-281010-
NORTHERN FOOTHILLS OF THE BLUES

CITY            SKY/WX      TMP DP  RH  WIND    PRES   REMARKS
PENDLETON AIRPT PTCLDY      40  28  62  W28G33  30.02S WCI 29
#ADAMS 3WNW     N/A         36  30  79  SW8     30.09R
#ATHENA         N/A         39  31  73  SW3     30.11S
#CAYUSE         N/A         41  31  67  SW12    30.08F WCI 34
#HELIX SCHOOL   N/A         37  31  79  W13G24  30.07S WCI 29
#HELIX 3N       N/A         36  31  82  SW22G30 29.98S WCI 25
#HOLDMAN 5SE    N/A         39  32  76  SW10    30.04S
#HOLDMAN 6E     N/A         36  30  79  N13     29.88R WCI 27
#M-F GROVE ELEM N/A         42  29  60  SW15G31 30.02S WCI 34
#M-FREEWATER 5SEN/A         40  30  67  SW15G26 30.03F WCI 32
#PENDLETON DNTN N/A         41  26  55  W3      28.85S
#PDT AQUATIC CTRN/A         42  28  57  W14     30.03S WCI 35
#PENDLETON 5NE  N/A         39  31  73  CALM    30.01R
#PDT SUNRIDGE   N/A         41  30  65  SW9     30.06R
#PENDLETON 7NW  N/A         39  30  70  W16     27.22  WCI 30
#PILOT ROCK     N/A         39  26  59  S7      30.04S
#TUTUILLA       N/A         40  31  70  S7      30.09S
#UMAPINE 2E     N/A         43  32  65  SW16G30 30.00S WCI 35
#WESTON SCHOOL  N/A         38  27  64  W13G32  30.02S WCI 30

$$

ORZ508-281010-
SOUTHERN FOOTHILLS OF THE BLUES

CITY            SKY/WX      TMP DP  RH  WIND    PRES   REMARKS
LEXINGTON       CLOUDY      41  32  70  SW23G26 30.06F WCI 31
#AJAX           N/A         37  23  56  S13     29.99F WCI 29
#CONDON SCHOOL  N/A         35  30  82  CALM    30.01F
#CONDON 5W      N/A         32  25  75  W22G31  30.01S WCI 19
#FOSSIL SCHOOL  N/A         36  25  64  CALM    30.05S
#HEPPNER EOC    N/A         38  31  76  SW8     30.06S
#HEPPNER 4NE    N/A         35  30  82  S7      30.11S
#LEXINGTON 2SE  N/A         42  31  65  SW14    30.02F WCI 35
#MIKKALO        N/A         41  27  57  W15     30.05F WCI 33
#RUGGS 5NE      N/A         34  28  78  SW16G26 30.17S WCI 24
#RUGGS 2SW      N/A         35  29  78  W17G25  30.14S WCI 25

$$

ORZ502-503-281010-
BLUE MOUNTAINS

CITY            SKY/WX      TMP DP  RH  WIND    PRES   REMARKS
MEACHAM         CLOUDY      32  27  82  VRB5    29.99R
#BATTLE MTN DOT N/A         28  27  96  CALM    N/A
#HARDMAN 10S    N/A         28  26  92  W2      30.31S
#HEPPNER 15SE   N/A         29  27  92  W6      29.92S
#LADD CYN SMT   N/A         24  21  88  SE15    N/A    WCI 11
#LADD CREEK ODOTN/A         27  23  85  S5      N/A
#LONG CREEK HS  N/A         33  31  92  CALM    29.99F
#N POWDER DOT   N/A         21  20  96  CALM    N/A
#PIKES PEAK     N/A         30  28  92  SW25G39 27.99S WCI 16
#TROY SCHOOL    N/A         32  30  92  CALM    29.92S
#UKIAH          N/A         26  24  92  CALM    30.22F
#WESTON 4E      N/A         32  29  89  SW13    30.05F WCI 22
$$

ORZ505-281010-
JOHN DAY BASIN

CITY            SKY/WX      TMP DP  RH  WIND    PRES   REMARKS
JOHN DAY        LGT SNOW    33  32  96  SW9     30.06S
#JOHN DAY KJDY  N/A         34  28  78  CALM    30.19F
#DAYVILLE SCHOOLN/A         32  29  89  CALM    30.16S
#MONUMENT HS    N/A         28  26  92  CALM    30.11S
#MT. VERNON 5SE N/A         30  29  96  CALM    30.01R
#WINLOCK        N/A         29  25  85  CALM    30.14S
$$

ORZ506-281010-
OCHOCO AND JOHN DAY HIGHLANDS

CITY            SKY/WX      TMP DP  RH  WIND    PRES   REMARKS
#BUCK CREEK DOT N/A         37  37  100 SW14    N/A    WCI 28
#HORSE RIDGE DO N/A         36  29  75  NW7     N/A
#KEYES SMT DOT  N/A         30  28  92  CALM    N/A
#PAULINA SCHOOL N/A         N/A N/A N/A SW5     30.04F
#PRAIRIE CITY   N/A         27  24  88  CALM    30.25S
#SENECA         N/A         26  N/A N/A CALM    N/A
#SENECA 9NW     N/A         25  24  96  CALM    30.27F
$$

ORZ049-281010-
GRANDE RONDE VALLEY

CITY            SKY/WX      TMP DP  RH  WIND    PRES   REMARKS
LA GRANDE       PTCLDY      27  16  63  SE7     30.02S
#COVE           N/A         29  24  81  E3      30.03S
#COVE SCHOOL    N/A         29  25  85  CALM    30.00F
#COVE 6NW       N/A         25  21  84  CALM    30.20S
#ELGIN 3N       N/A         33  26  75  S6      29.73S
#ELGIN 1E       N/A         32  28  85  CALM    N/A
#ISLAND CITY 4N N/A         38  37  96  CALM    30.19S
#LADD CYN DOT   N/A         30  20  66  SE16G24 N/A    WCI 19
#UNION 1S       N/A         28  24  85  SE13    30.09S WCI 17
$$

ORZ050-281010-
WALLOWA COUNTY

CITY            SKY/WX      TMP DP  RH  WIND    PRES   REMARKS
#ENTERPRISE AP  N/A         30  22  72  W1      29.91R
#ENTERPRISE HS  N/A         30  24  78  NE1     29.98S
#IMNAHA SCHOOL  N/A         35  27  72  S6      30.03S
#IMNAHA 10S     N/A         28  24  85  SW3     30.01S
#JOSEPH 3N      N/A         28  22  78  VRB2    29.98R
#JOSEPH 3W      N/A         28  16  60  CALM    29.78S
#LOSTINE        N/A         34  22  61  SW12    29.93F WCI 25
#MT HOWARD 8000 N/A         13  11  91  CALM    29.78S
#PROMISE 1S     N/A         29  26  88  E9      30.17S
#SHEEP RDG 7000 N/A         17  13  84  CALM    30.05R
#WALLOWA SCHOOL N/A         34  25  69  W7      31.13F



$$



USA.gov is the U.S. government's official web portal to all federal, state and local government web resources and services.